Location: Aboncourt
(47.7710°N, 5.9826°E)
Time: 02:52:51
(UTC+00:00)

Nadezhda 1 Rocket - Pass Details

Date: 05 July 2020
Orbit: 942 x 1005 km, 83.0° (Epoch: 03 August)

Event Time Altitude Azimuth Distance (km) Brightness Sun altitude
Rises 20:23:48 0° 350° (N) 3,741 8.1 -6.8°
Reaches altitude 10° 20:26:20 10° 349° (N) 2,790 7.4 -7.1°
Maximum altitude 20:32:46 82° 265° (W) 1,021 4.2 -7.9°
Drops below altitude 10° 20:39:08 10° 178° (S) 2,763 5.9 -8.6°
Enters shadow 20:41:02 - 177° (S) 3,477 6.4 -8.8°
